Weather History for Columbia / Mount Pleasant, TN

Change the Weather History Date:

Monday, July 29, 2013

  Actual Average (KBNA) Record (KBNA)
Temperature  
Mean Temperature 74 °F 80 °F  
Max Temperature 78 °F 89 °F 105 °F (1952)
Min Temperature 69 °F 70 °F 58 °F (1925)
Degree Days  
Heating Degree Days 0 0  
Month to date heating degree days 0  
Since 1 June heating degree days 3  
Since 1 July heating degree days 0  
Cooling Degree Days 8 15  
Month to date cooling degree days 423  
Year to date cooling degree days 926  
Since 1 June cooling degree days 747  
Growing Degree Days 24 (Base 50)    
Moisture  
Dew Point 65 °F    
Average Humidity 73    
Maximum Humidity 100    
Minimum Humidity 51    
Precipitation  
Precipitation 0.00 in 0.11 in 1.25 in (1945)
Month to date precipitation 3.43  
Year to date precipitation 28.87  
Snow  
Snow 0.00 in 0.00 in 0.00 in (2002)
Month to date snowfall 0.0  
Since 1 June snowfall 0.0  
Since 1 July snowfall 0.0  
Snow Depth -    
Sea Level Pressure  
Sea Level Pressure 30.15 in    
Wind  
Wind Speed 1 mph (East)    
Max Wind Speed 7 mph    
Max Gust Speed -    
Visibility 10 miles    
Events      
T = Trace of Precipitation, MM = Missing Value Source: NWS Daily Summary

Daily Weather History Graph

Daily Weather History Graph

Search for Another Location

Airport:

Trip Planner

Search our weather history database for the weather conditions in past years. The results will help you decide how hot, cold, wet, or windy it might be!

Date:

Astronomy

Jul. 29, 2013 Rise Set
Actual Time 5:54 AM CDT 7:54 PM CDT
Civil Twilight 5:26 AM CDT 8:23 PM CDT
Nautical Twilight 4:52 AM CDT 8:57 PM CDT
Astronomical Twilight 4:15 AM CDT 9:34 PM CDT
Moon No Moon Rise 1:18 PM CDT (7/29)
Length of Visible Light 14h 56m
Length of Day
14h 00m
Waning Gibbous, 50% of the Moon is Illuminated
Jul 29
Waning Gibbous
Jul 29
Last Quarter
Aug 6
New
Aug 14
First Quarter
Aug 20
Full

Hourly Weather History & Observations

Time (CDT) Temp. Dew Point Humidity Pressure Visibility Wind Dir Wind Speed Gust Speed Precip Events Conditions
12:35 AM - - N/A% 30.09 in 10.0 mi Calm Calm - N/A   Clear
12:55 AM - - N/A% 30.09 in 10.0 mi Calm Calm - N/A   Clear
1:15 AM - - N/A% 30.09 in 10.0 mi Calm Calm - N/A   Clear
1:35 AM - - N/A% 30.09 in 10.0 mi Calm Calm - N/A   Clear
1:55 AM - - N/A% 30.09 in 10.0 mi Calm Calm - N/A   Clear
2:15 AM - - N/A% 30.09 in 10.0 mi Calm Calm - N/A   Clear
2:55 AM - - N/A% 30.08 in 6.0 mi East 3.5 mph - N/A   Clear
3:15 AM - - N/A% 30.08 in 10.0 mi Calm Calm - N/A   Clear
3:55 AM - - N/A% 30.09 in 10.0 mi Calm Calm - N/A   Clear
4:15 AM - - N/A% 30.10 in 10.0 mi Calm Calm - N/A   Clear
4:55 AM - - N/A% 30.12 in 10.0 mi Calm Calm - N/A   Clear
5:15 AM - - N/A% 30.12 in 10.0 mi Calm Calm - N/A   Clear
5:35 AM - - N/A% 30.12 in 10.0 mi Calm Calm - N/A   Clear
5:55 AM - - N/A% 30.12 in 10.0 mi Calm Calm - N/A   Clear
6:15 AM - - N/A% 30.13 in 10.0 mi Calm Calm - N/A   Clear
6:35 AM - - N/A% 30.14 in 10.0 mi WSW 3.5 mph - N/A   Clear
6:55 AM - - N/A% 30.14 in 10.0 mi Calm Calm - N/A   Clear
7:15 AM - - N/A% 30.16 in 9.0 mi Calm Calm - N/A   Clear
7:35 AM - - N/A% 30.16 in 4.0 mi Calm Calm - N/A   Clear
7:55 AM - - N/A% 30.16 in 10.0 mi Calm Calm - N/A   Clear
8:15 AM - - N/A% 30.17 in 10.0 mi NNE 3.5 mph - N/A   Clear
8:35 AM - - N/A% 30.18 in 10.0 mi Calm Calm - N/A   Clear
8:55 AM - - N/A% 30.18 in 10.0 mi NE 3.5 mph - N/A   Clear
9:15 AM 69.8 °F 69.8 °F 100% 30.18 in 10.0 mi Calm Calm - N/A   Clear
9:35 AM 69.8 °F 69.8 °F 100% 30.18 in 10.0 mi Calm Calm - N/A   Clear
9:55 AM 69.8 °F 69.8 °F 100% 30.19 in 10.0 mi ENE 3.5 mph - N/A   Clear
10:15 AM 69.8 °F 69.8 °F 100% 30.19 in 10.0 mi East 5.8 mph - N/A   Clear
10:35 AM 71.6 °F 69.8 °F 94% 30.19 in 10.0 mi East 4.6 mph - N/A   Clear
10:55 AM 71.6 °F 68.0 °F 88% 30.19 in 10.0 mi ESE 6.9 mph - N/A   Unknown
11:15 AM 73.4 °F 66.2 °F 78% 30.19 in 10.0 mi East 6.9 mph - N/A   Clear
11:35 AM 73.4 °F 64.4 °F 73% 30.19 in 10.0 mi East 5.8 mph - N/A   Clear
11:55 AM 73.4 °F 62.6 °F 69% 30.18 in 10.0 mi East 4.6 mph - N/A   Clear
12:15 PM 75.2 °F 62.6 °F 65% 30.18 in 10.0 mi ENE 5.8 mph - N/A   Clear
12:35 PM 75.2 °F 62.6 °F 65% 30.19 in 10.0 mi ENE 4.6 mph - N/A   Clear
12:55 PM 77.0 °F 62.6 °F 61% 30.18 in 10.0 mi East 4.6 mph - N/A   Clear
1:15 PM 78.8 °F 64.4 °F 61% 30.18 in 10.0 mi ENE 6.9 mph - N/A   Clear
1:35 PM 78.8 °F 60.8 °F 54% 30.18 in 10.0 mi NE 5.8 mph - N/A   Clear
1:55 PM 78.8 °F 60.8 °F 54% 30.18 in 10.0 mi East 3.5 mph - N/A   Clear
2:15 PM 77.0 °F 60.8 °F 57% 30.17 in 10.0 mi East 4.6 mph - N/A   Clear
2:35 PM 77.0 °F 62.6 °F 61% 30.17 in 10.0 mi ENE 3.5 mph - N/A   Clear
2:55 PM 78.8 °F 62.6 °F 57% 30.16 in 10.0 mi East 4.6 mph - N/A   Clear
3:15 PM 78.8 °F 62.6 °F 57% 30.16 in 10.0 mi Calm Calm - N/A   Clear
3:35 PM 77.0 °F 62.6 °F 61% 30.16 in 10.0 mi ESE 4.6 mph - N/A   Clear
3:55 PM 77.0 °F 60.8 °F 57% 30.16 in 10.0 mi SE 3.5 mph - N/A   Clear
4:15 PM 78.8 °F 60.8 °F 54% 30.16 in 10.0 mi ESE 3.5 mph - N/A   Clear
4:35 PM 78.8 °F 59.0 °F 51% 30.16 in 10.0 mi SE 3.5 mph - N/A   Clear
4:55 PM 78.8 °F 60.8 °F 54% 30.15 in 10.0 mi Calm Calm - N/A   Clear
5:15 PM 78.8 °F 60.8 °F 54% 30.15 in 10.0 mi Calm Calm - N/A   Clear
5:35 PM 78.8 °F 62.6 °F 57% 30.15 in 10.0 mi Calm Calm - N/A   Clear
5:55 PM 78.8 °F 62.6 °F 57% 30.16 in 10.0 mi Calm Calm - N/A   Clear
6:15 PM 78.8 °F 60.8 °F 54% 30.15 in 10.0 mi Calm Calm - N/A   Clear
6:35 PM 75.2 °F 68.0 °F 78% 30.16 in 10.0 mi Calm Calm - N/A   Clear
6:55 PM 75.2 °F 71.6 °F 89% 30.15 in 10.0 mi Calm Calm - N/A   Clear
7:15 PM 73.4 °F 73.4 °F 100% 30.16 in 10.0 mi Calm Calm - N/A   Clear
7:35 PM 71.6 °F 71.6 °F 100% 30.16 in 10.0 mi Calm Calm - N/A   Clear
7:55 PM 69.8 °F 69.8 °F 100% 30.16 in 10.0 mi Calm Calm - N/A   Clear
8:15 PM 69.8 °F 69.8 °F 100% 30.16 in 10.0 mi Calm Calm - N/A   Clear
8:35 PM 69.8 °F 69.8 °F 100% 30.17 in 10.0 mi Calm Calm - N/A   Clear
8:55 PM - - N/A% 30.16 in 10.0 mi SSE 3.5 mph - N/A   Clear
9:15 PM - - N/A% 30.17 in 10.0 mi Calm Calm - N/A   Unknown
9:35 PM - - N/A% 30.17 in 10.0 mi Calm Calm - N/A   Unknown
9:55 PM - - N/A% 30.17 in 10.0 mi Calm Calm - N/A   Unknown
10:15 PM - - N/A% 30.17 in 10.0 mi Calm Calm - N/A   Clear
10:35 PM - - N/A% 30.18 in 10.0 mi Calm Calm - N/A   Clear
10:55 PM - - N/A% 30.19 in 10.0 mi SW 3.5 mph - N/A   Clear
11:15 PM - - N/A% 30.19 in 10.0 mi Calm Calm - N/A   Clear
11:35 PM - - N/A% 30.19 in 10.0 mi Calm Calm - N/A   Clear
11:55 PM - - N/A% 30.19 in 10.0 mi Calm Calm - N/A   Clear